Location: Winthrop
(48.4780°N, 120.1850°W)
Time: 05:12:58
(UTC-07:00)

deb Explorer IX - Pass Details

Date: 10 February 2023
Orbit: 536 x 1029 km, 38.8° (Epoch: 27 March)

Event Time Altitude Azimuth Distance (km) Brightness Sun altitude
Rises 23:23:45 0° 201° (SSW) 3,461 - -54.0°
Reaches altitude 10° 23:28:37 10° 167° (SSE) 2,378 - -54.3°
Maximum altitude 23:30:01 11° 152° (SSE) 2,268 - -54.4°
Drops below altitude 10° 23:31:24 10° 138° (SE) 2,290 - -54.4°
Sets 23:35:43 0° 102° (ESE) 3,069 - -54.7°
